TimeCDT,TemperatureF,Dew PointF,Humidity,Sea Level PressureIn,VisibilityMPH,Wind Direction,Wind SpeedMPH,Gust SpeedMPH,PrecipitationIn,Events,Conditions,WindDirDegrees,DateUTC
12:53 AM,71.1,66.0,84,30.02,10.0,SSE,9.2,-,N/A,,Mostly Cloudy,150,2013-04-24 05:53:00
1:53 AM,72.0,66.0,81,30.01,10.0,SE,6.9,-,N/A,,Overcast,140,2013-04-24 06:53:00
2:53 AM,72.0,66.0,81,30.01,10.0,SSE,5.8,-,N/A,,Overcast,160,2013-04-24 07:53:00
3:19 AM,71.6,66.2,83,30.03,10.0,SE,10.4,-,N/A,,Mostly Cloudy,140,2013-04-24 08:19:00
3:32 AM,71.6,66.2,83,30.04,10.0,SSE,9.2,-,N/A,,Scattered Clouds,150,2013-04-24 08:32:00
3:53 AM,71.1,66.0,84,30.02,10.0,SE,8.1,-,N/A,,Partly Cloudy,140,2013-04-24 08:53:00
4:36 AM,71.6,66.2,83,30.05,10.0,SE,4.6,-,N/A,,Mostly Cloudy,130,2013-04-24 09:36:00
4:53 AM,71.6,66.2,83,30.05,10.0,SE,3.5,-,N/A,,Overcast,130,2013-04-24 09:53:00
5:10 AM,71.6,66.2,83,30.05,10.0,SE,5.8,-,N/A,,Overcast,140,2013-04-24 10:10:00
5:53 AM,72.0,66.9,84,30.02,9.0,SSE,6.9,-,N/A,,Overcast,150,2013-04-24 10:53:00
6:53 AM,72.0,68.0,87,30.03,7.0,SE,8.1,-,N/A,,Overcast,140,2013-04-24 11:53:00
7:53 AM,72.0,68.0,87,30.04,8.0,SSE,11.5,-,N/A,,Overcast,150,2013-04-24 12:53:00
8:53 AM,72.0,68.0,87,30.03,8.0,SSE,10.4,-,N/A,,Mostly Cloudy,150,2013-04-24 13:53:00
9:03 AM,73.4,68.0,83,30.04,8.0,SSE,12.7,-,N/A,,Mostly Cloudy,150,2013-04-24 14:03:00
9:33 AM,73.4,68.0,83,30.04,8.0,SSE,11.5,-,N/A,,Scattered Clouds,160,2013-04-24 14:33:00
9:40 AM,73.4,68.0,83,30.06,8.0,South,12.7,-,N/A,,Mostly Cloudy,170,2013-04-24 14:40:00
9:50 AM,73.4,68.0,83,30.05,8.0,SSE,12.7,-,N/A,Thunderstorm,Thunderstorm,160,2013-04-24 14:50:00
9:53 AM,73.0,68.0,84,30.03,8.0,SSE,13.8,-,N/A,Thunderstorm,Thunderstorm,160,2013-04-24 14:53:00
10:02 AM,73.4,68.0,83,30.04,7.0,SSE,12.7,-,N/A,Thunderstorm,Thunderstorm,150,2013-04-24 15:02:00
10:49 AM,71.6,68.0,88,30.06,1.8,ESE,11.5,-,0.10,Rain-Thunderstorm,Thunderstorms and Rain,120,2013-04-24 15:49:00
10:53 AM,72.0,68.0,87,30.03,1.5,ESE,10.4,-,0.16,Rain-Thunderstorm,Heavy Thunderstorms and Rain,110,2013-04-24 15:53:00
11:00 AM,71.6,69.8,94,30.06,1.5,ESE,9.2,18.4,0.05,Rain-Thunderstorm,Thunderstorms and Rain,110,2013-04-24 16:00:00
11:12 AM,73.4,69.8,88,30.08,6.0,ESE,5.8,-,0.06,Rain-Thunderstorm,Light Thunderstorms and Rain,120,2013-04-24 16:12:00
11:24 AM,71.6,69.8,94,30.07,5.0,SE,9.2,-,0.06,Rain-Thunderstorm,Light Thunderstorms and Rain,130,2013-04-24 16:24:00
11:42 AM,71.6,69.8,94,30.04,5.0,East,13.8,-,0.08,Rain-Thunderstorm,Light Thunderstorms and Rain,90,2013-04-24 16:42:00
11:53 AM,71.1,66.9,87,30.01,6.0,ENE,25.3,31.1,0.10,Rain-Thunderstorm,Light Thunderstorms and Rain,60,2013-04-24 16:53:00
12:06 PM,71.6,66.2,83,30.09,1.2,NNE,20.7,33.4,0.26,Rain-Thunderstorm,Heavy Thunderstorms and Rain,20,2013-04-24 17:06:00
12:10 PM,69.8,66.2,88,30.07,0.2,NE,28.8,34.5,0.67,Fog-Rain-Thunderstorm,Heavy Thunderstorms and Rain,40,2013-04-24 17:10:00
12:28 PM,68.0,66.2,94,30.08,0.5,ENE,13.8,28.8,1.44,Fog-Rain-Thunderstorm,Heavy Thunderstorms and Rain,60,2013-04-24 17:28:00
12:34 PM,69.8,66.2,88,30.09,1.0,ENE,20.7,25.3,1.52,Rain-Thunderstorm,Heavy Thunderstorms and Rain,60,2013-04-24 17:34:00
12:40 PM,66.2,64.4,94,30.08,1.5,ENE,19.6,25.3,1.57,Rain,Heavy Rain,60,2013-04-24 17:40:00
12:48 PM,69.8,66.2,88,30.10,2.0,ENE,18.4,-,1.60,Rain,Rain,70,2013-04-24 17:48:00
12:53 PM,69.1,66.0,90,30.07,4.0,East,19.6,-,1.63,Rain,Light Rain,90,2013-04-24 17:53:00
12:56 PM,69.8,66.2,88,30.08,1.8,East,18.4,-,0.07,Rain,Heavy Rain,100,2013-04-24 17:56:00
1:07 PM,69.8,66.2,88,30.08,3.0,ESE,12.7,-,0.10,Rain,Light Rain,110,2013-04-24 18:07:00
1:53 PM,71.1,66.9,87,30.05,10.0,SE,16.1,-,0.11,,Overcast,140,2013-04-24 18:53:00
2:53 PM,70.0,66.0,87,30.05,10.0,SE,8.1,-,0.04,,Overcast,130,2013-04-24 19:53:00
3:53 PM,71.1,66.9,87,30.05,6.0,Calm,Calm,-,N/A,,Overcast,0,2013-04-24 20:53:00
4:00 PM,71.6,66.2,83,30.07,5.0,WSW,4.6,-,N/A,,Overcast,240,2013-04-24 21:00:00
4:38 PM,71.6,66.2,83,30.07,10.0,NNW,6.9,-,N/A,,Overcast,330,2013-04-24 21:38:00
4:53 PM,71.1,66.9,87,30.05,10.0,North,6.9,-,N/A,,Overcast,360,2013-04-24 21:53:00
5:10 PM,71.6,66.2,83,30.07,10.0,North,11.5,-,N/A,,Overcast,350,2013-04-24 22:10:00
5:25 PM,71.6,66.2,83,30.07,10.0,North,13.8,-,N/A,,Overcast,350,2013-04-24 22:25:00
5:53 PM,68.0,64.0,87,30.06,10.0,North,17.3,-,N/A,,Overcast,350,2013-04-24 22:53:00
6:07 PM,68.0,64.4,88,30.08,10.0,North,16.1,-,N/A,,Overcast,360,2013-04-24 23:07:00
6:27 PM,68.0,64.4,88,30.09,10.0,North,18.4,-,N/A,,Overcast,10,2013-04-24 23:27:00
6:53 PM,66.9,63.0,87,30.08,7.0,North,18.4,-,0.00,Rain,Light Rain,10,2013-04-24 23:53:00
7:53 PM,64.0,61.0,90,30.10,9.0,North,15.0,-,0.00,,Overcast,350,2013-04-25 00:53:00
8:53 PM,63.0,59.0,87,30.13,9.0,North,15.0,-,N/A,,Overcast,360,2013-04-25 01:53:00
9:53 PM,62.1,57.0,84,30.15,10.0,North,16.1,-,N/A,,Overcast,360,2013-04-25 02:53:00
10:53 PM,61.0,57.0,87,30.16,10.0,North,19.6,-,N/A,,Overcast,10,2013-04-25 03:53:00
11:53 PM,61.0,55.9,83,30.16,10.0,North,17.3,-,N/A,,Overcast,10,2013-04-25 04:53:00